Regional Weather Roundup
Issued by NWS

Home | Current Version | Previous Version | Graphics & Text | Print | Product List | Glossary Off
Versions: 1 2 3 4 5 6 7 8 9 10 11 12 13 14 15 16 17 18 19 20 21 22 23 24 25 26 27 28 29 30 31 32 33 34 35 36 37 38 39 40 41 42 43 44 45 46 47 48 49 50

000
ASUS43 KFSD 251110
RWRSD

WEATHER ROUNDUP FOR SOUTH DAKOTA
NATIONAL WEATHER SERVICE SIOUX FALLS SD
500 AM CST TUE NOV 25 2014

NOTE: "FAIR" INDICATES FEW OR NO CLOUDS BELOW 12,000 FEET WITH NO
SIGNIFICANT WEATHER AND/OR OBSTRUCTIONS TO VISIBILITY.


SDZ001>005-009-010-012>017-251200-
NORTHWEST AND NORTH CENTRAL SOUTH DAKOTA

CITY           SKY/WX    TMP DP  RH WIND       PRES   REMARKS
BUFFALO          N/A     27  22  81 SW7       29.79F WCI  19
FAITH            N/A     22  18  85 S6        29.92F WCI  14
MOBRIDGE       PTCLDY    26  22  84 CALM      29.92F
$$

SDZ012>016-024>037-041>051-057-063-072>074-251200-
SOUTHWEST AND SOUTH CENTRAL SOUTH DAKOTA

CITY           SKY/WX    TMP DP  RH WIND       PRES   REMARKS
RAPID CTY ARPT CLOUDY    24  17  74 SE3       29.92F
PIERRE         CLEAR     23  20  88 SW7       29.98F WCI  15
CUSTER         CLOUDY    20  16  84 SW5       29.89F WCI  13
ELLSWORTH AFB  MOCLDY    26  19  74 CALM      29.91F
PHILIP         PTCLDY   N/A N/A N/A W3        29.99F
PINE RIDGE     MOCLDY    22  18  85 CALM      29.99F
SPEARFISH      MOCLDY    34  16  47 SW8G18    29.87F WCI  27
WINNER         FAIR      27  22  81 W7        30.02F WCI  19
$$

SDZ004>011-016>023-039-040-251200-
NORTHEAST SOUTH DAKOTA

CITY           SKY/WX    TMP DP  RH WIND       PRES   REMARKS
ABERDEEN       CLOUDY    20  15  81 S5        29.99F WCI  13
WATERTOWN      CLOUDY    13   6  74 SW7       29.97F WCI   3
SISSETON         N/A     19   9  65 CALM      29.98F
$$

SDZ017-020-022-023-036>040-048>070-251200-
SOUTHEAST SOUTH DAKOTA

CITY           SKY/WX    TMP DP  RH WIND       PRES   REMARKS
SIOUX FALLS    PTCLDY    13   7  77 SW5       30.04F WCI   5
HURON          CLOUDY    20  14  77 S6        30.02F WCI  12
CHAMBERLAIN    MOCLDY    18  15  90 SW3       30.01F
MITCHELL       CLOUDY    21  15  78 S3        30.05F
YANKTON        CLOUDY    16  10  79 CALM      30.09S
$$

ABBREVIATIONS USED IN REMARKS
   TC - TEMPERATURE IN CELSIUS
  WCI - WIND CHILL INDEX
   HX - HEAT INDEX
  VSB - VISIBILITY



USA.gov is the U.S. government's official web portal to all federal, state and local government web resources and services.